Time,TemperatureF,DewpointF,PressureIn,WindDirection,WindDirectionDegrees,WindSpeedMPH,WindSpeedGustMPH,Humidity,HourlyPrecipIn,Conditions,Clouds,dailyrainin,SoftwareType,DateUTC
2013-01-09 00:00:00,48.5,46.0,30.03,West,277,0.0,5.0,90,0.00,,,0.00,weatherlink.com 1.10,2013-01-09 08:00:00,
2013-01-09 00:15:00,49.5,46.0,30.02,ESE,106,0.0,3.0,86,0.00,,,0.00,weatherlink.com 1.10,2013-01-09 08:15:00,
2013-01-09 00:30:00,49.5,46.0,30.01,WSW,243,2.0,4.0,86,0.00,,,0.00,weatherlink.com 1.10,2013-01-09 08:30:00,
2013-01-09 00:45:00,49.5,45.0,30.02,East,82,0.0,3.0,85,0.00,,,0.00,weatherlink.com 1.10,2013-01-09 08:45:00,
2013-01-09 01:00:00,49.7,45.0,30.01,WNW,302,2.0,5.0,84,0.00,,,0.00,weatherlink.com 1.10,2013-01-09 09:00:00,
2013-01-09 01:15:00,50.2,45.0,30.01,NNE,23,1.0,4.0,83,0.00,,,0.00,weatherlink.com 1.10,2013-01-09 09:15:00,
2013-01-09 01:31:00,50.5,45.0,30.00,North,4,1.0,6.0,82,0.00,,,0.00,weatherlink.com 1.10,2013-01-09 09:31:00,
2013-01-09 01:46:00,50.5,45.0,30.00,WSW,245,1.0,5.0,82,0.00,,,0.00,weatherlink.com 1.10,2013-01-09 09:46:00,
2013-01-09 02:01:00,50.4,45.0,30.00,SE,142,5.0,7.0,82,0.00,,,0.00,weatherlink.com 1.10,2013-01-09 10:01:00,
2013-01-09 02:16:00,48.4,45.0,29.99,SSE,162,1.0,4.0,88,0.00,,,0.00,weatherlink.com 1.10,2013-01-09 10:16:00,
2013-01-09 02:31:00,47.9,45.0,29.98,East,101,0.0,4.0,89,0.00,,,0.00,weatherlink.com 1.10,2013-01-09 10:31:00,
2013-01-09 02:46:00,47.7,45.0,29.96,ENE,70,1.0,4.0,90,0.00,,,0.00,weatherlink.com 1.10,2013-01-09 10:46:00,
2013-01-09 03:01:00,47.7,45.0,29.97,SW,218,2.0,8.0,90,0.00,,,0.00,weatherlink.com 1.10,2013-01-09 11:01:00,
2013-01-09 03:16:00,47.7,45.0,29.95,WSW,239,2.0,7.0,90,0.00,,,0.00,weatherlink.com 1.10,2013-01-09 11:16:00,
2013-01-09 03:31:00,47.8,45.0,29.93,East,95,5.0,8.0,90,0.00,,,0.00,weatherlink.com 1.10,2013-01-09 11:31:00,
2013-01-09 03:46:00,48.3,45.0,29.93,ENE,77,1.0,8.0,89,0.00,,,0.00,weatherlink.com 1.10,2013-01-09 11:46:00,
2013-01-09 04:01:00,48.7,45.0,29.92,SSE,160,3.0,8.0,88,0.00,,,0.00,weatherlink.com 1.10,2013-01-09 12:01:00,
2013-01-09 04:16:00,48.9,45.0,29.91,ESE,112,4.0,10.0,87,0.00,,,0.00,weatherlink.com 1.10,2013-01-09 12:16:00,
2013-01-09 04:31:00,48.8,45.0,29.89,ESE,105,1.0,9.0,87,0.00,,,0.00,weatherlink.com 1.10,2013-01-09 12:31:00,
2013-01-09 04:46:00,48.9,45.0,29.89,South,169,6.0,10.0,86,0.00,,,0.00,weatherlink.com 1.10,2013-01-09 12:46:00,
2013-01-09 05:01:00,49.1,45.0,29.88,South,190,3.0,12.0,85,0.00,,,0.00,weatherlink.com 1.10,2013-01-09 13:01:00,
2013-01-09 05:16:00,49.3,45.0,29.86,SSE,150,5.0,12.0,85,0.00,,,0.00,weatherlink.com 1.10,2013-01-09 13:16:00,
2013-01-09 05:31:00,49.3,45.0,29.85,ENE,73,4.0,10.0,84,0.00,,,0.00,weatherlink.com 1.10,2013-01-09 13:31:00,
2013-01-09 06:01:00,49.2,45.0,29.85,SSE,154,3.0,14.0,86,0.01,,,0.01,weatherlink.com 1.10,2013-01-09 14:01:00,
2013-01-09 06:16:00,47.8,45.0,29.86,SE,124,0.0,12.0,90,0.03,,,0.03,weatherlink.com 1.10,2013-01-09 14:16:00,
2013-01-09 06:31:00,46.4,43.0,29.89,West,262,1.0,9.0,89,0.11,,,0.11,weatherlink.com 1.10,2013-01-09 14:31:00,
2013-01-09 06:46:00,44.3,42.0,29.89,SW,225,2.0,9.0,90,0.17,,,0.17,weatherlink.com 1.10,2013-01-09 14:46:00,
2013-01-09 07:01:00,43.3,42.0,29.89,NW,322,0.0,5.0,93,0.17,,,0.18,weatherlink.com 1.10,2013-01-09 15:01:00,
2013-01-09 07:17:00,42.9,41.0,29.90,SW,218,2.0,6.0,92,0.15,,,0.18,weatherlink.com 1.10,2013-01-09 15:17:00,
2013-01-09 07:32:00,42.5,40.0,29.91,WNW,283,0.0,5.0,91,0.06,,,0.18,weatherlink.com 1.10,2013-01-09 15:32:00,
2013-01-09 07:47:00,42.2,40.0,29.93,SSE,153,0.0,4.0,92,0.01,,,0.18,weatherlink.com 1.10,2013-01-09 15:47:00,
2013-01-09 08:02:00,41.8,40.0,29.95,WNW,284,0.0,2.0,93,0.00,,,0.18,weatherlink.com 1.10,2013-01-09 16:02:00,
2013-01-09 08:17:00,41.7,40.0,29.96,WNW,302,0.0,2.0,93,0.00,,,0.18,weatherlink.com 1.10,2013-01-09 16:17:00,
2013-01-09 08:32:00,41.4,40.0,29.96,SSW,211,0.0,1.0,93,0.00,,,0.18,weatherlink.com 1.10,2013-01-09 16:32:00,
2013-01-09 08:47:00,41.3,40.0,29.97,West,266,0.0,2.0,93,0.00,,,0.18,weatherlink.com 1.10,2013-01-09 16:47:00,
2013-01-09 09:02:00,41.4,39.0,29.98,WSW,254,1.0,5.0,91,0.00,,,0.18,weatherlink.com 1.10,2013-01-09 17:02:00,
2013-01-09 09:17:00,41.3,39.0,29.98,West,267,0.0,1.0,92,0.00,,,0.18,weatherlink.com 1.10,2013-01-09 17:17:00,
2013-01-09 09:32:00,41.3,40.0,29.98,NW,305,0.0,0.0,93,0.00,,,0.18,weatherlink.com 1.10,2013-01-09 17:32:00,
2013-01-09 09:47:00,41.3,40.0,29.99,West,273,0.0,1.0,93,0.00,,,0.18,weatherlink.com 1.10,2013-01-09 17:47:00,
2013-01-09 10:02:00,41.5,39.0,30.00,WNW,285,0.0,3.0,92,0.00,,,0.18,weatherlink.com 1.10,2013-01-09 18:02:00,
2013-01-09 10:17:00,41.6,40.0,30.01,WSW,257,0.0,1.0,93,0.00,,,0.18,weatherlink.com 1.10,2013-01-09 18:17:00,
2013-01-09 10:32:00,41.8,40.0,30.01,WNW,288,0.0,1.0,93,0.00,,,0.18,weatherlink.com 1.10,2013-01-09 18:32:00,
2013-01-09 10:47:00,41.9,40.0,30.02,SW,235,1.0,6.0,92,0.00,,,0.18,weatherlink.com 1.10,2013-01-09 18:47:00,
2013-01-09 11:02:00,42.0,40.0,30.03,West,273,0.0,9.0,91,0.00,,,0.18,weatherlink.com 1.10,2013-01-09 19:02:00,
2013-01-09 11:17:00,41.7,39.0,30.02,SW,224,1.0,4.0,89,0.00,,,0.18,weatherlink.com 1.10,2013-01-09 19:17:00,
2013-01-09 11:32:00,41.9,39.0,30.03,West,271,0.0,3.0,89,0.00,,,0.18,weatherlink.com 1.10,2013-01-09 19:32:00,
2013-01-09 11:47:00,42.3,39.0,30.03,WNW,301,1.0,5.0,87,0.00,,,0.18,weatherlink.com 1.10,2013-01-09 19:47:00,
2013-01-09 12:02:00,42.6,39.0,30.03,West,278,3.0,4.0,88,0.00,,,0.18,weatherlink.com 1.10,2013-01-09 20:02:00,
2013-01-09 12:17:00,43.5,40.0,30.02,West,278,1.0,2.0,87,0.00,,,0.18,weatherlink.com 1.10,2013-01-09 20:17:00,
2013-01-09 12:32:00,43.6,40.0,30.01,WSW,257,0.0,9.0,87,0.00,,,0.18,weatherlink.com 1.10,2013-01-09 20:32:00,
2013-01-09 12:47:00,44.1,40.0,30.02,South,184,1.0,2.0,85,0.00,,,0.18,weatherlink.com 1.10,2013-01-09 20:47:00,
2013-01-09 13:02:00,43.5,39.0,30.04,SSW,211,0.0,4.0,85,0.00,,,0.18,weatherlink.com 1.10,2013-01-09 21:02:00,
2013-01-09 13:17:00,42.7,39.0,30.04,West,273,1.0,10.0,85,0.01,,,0.19,weatherlink.com 1.10,2013-01-09 21:17:00,
2013-01-09 13:32:00,41.9,39.0,30.04,WSW,253,1.0,5.0,88,0.02,,,0.20,weatherlink.com 1.10,2013-01-09 21:32:00,
2013-01-09 13:47:00,41.6,39.0,30.03,West,273,0.0,1.0,90,0.02,,,0.20,weatherlink.com 1.10,2013-01-09 21:47:00,
2013-01-09 14:02:00,41.9,39.0,30.04,NNW,340,0.0,2.0,90,0.02,,,0.20,weatherlink.com 1.10,2013-01-09 22:02:00,
2013-01-09 14:17:00,42.6,39.0,30.05,South,176,2.0,4.0,86,0.01,,,0.20,weatherlink.com 1.10,2013-01-09 22:17:00,
2013-01-09 14:32:00,41.9,38.0,30.04,WNW,298,3.0,4.0,87,0.00,,,0.20,weatherlink.com 1.10,2013-01-09 22:32:00,
2013-01-09 14:47:00,42.8,40.0,30.05,West,262,0.0,2.0,89,0.01,,,0.21,weatherlink.com 1.10,2013-01-09 22:47:00,
2013-01-09 15:02:00,42.9,39.0,30.05,WSW,252,2.0,2.0,86,0.01,,,0.21,weatherlink.com 1.10,2013-01-09 23:02:00,
2013-01-09 15:17:00,41.9,38.0,30.05,ESE,115,0.0,1.0,86,0.01,,,0.21,weatherlink.com 1.10,2013-01-09 23:17:00,
2013-01-09 15:32:00,41.9,38.0,30.06,WNW,295,0.0,4.0,87,0.01,,,0.21,weatherlink.com 1.10,2013-01-09 23:32:00,
2013-01-09 15:47:00,41.5,38.0,30.06,East,91,0.0,2.0,87,0.00,,,0.21,weatherlink.com 1.10,2013-01-09 23:47:00,
2013-01-09 16:02:00,41.3,37.0,30.06,ENE,63,0.0,7.0,86,0.00,,,0.21,weatherlink.com 1.10,2013-01-10 00:02:00,
2013-01-09 16:17:00,41.3,38.0,30.06,East,79,2.0,5.0,87,0.00,,,0.21,weatherlink.com 1.10,2013-01-10 00:17:00,
2013-01-09 16:32:00,41.2,38.0,30.06,East,93,0.0,3.0,87,0.00,,,0.21,weatherlink.com 1.10,2013-01-10 00:32:00,
2013-01-09 16:47:00,40.5,37.0,30.06,NNE,16,0.0,4.0,86,0.00,,,0.21,weatherlink.com 1.10,2013-01-10 00:47:00,
2013-01-09 17:02:00,39.5,36.0,30.06,WNW,285,0.0,2.0,87,0.00,,,0.21,weatherlink.com 1.10,2013-01-10 01:02:00,
2013-01-09 17:17:00,38.6,36.0,30.06,WNW,285,0.0,0.0,89,0.00,,,0.21,weatherlink.com 1.10,2013-01-10 01:17:00,
2013-01-09 17:32:00,38.5,36.0,30.06,SSE,149,0.0,3.0,89,0.00,,,0.21,weatherlink.com 1.10,2013-01-10 01:32:00,
2013-01-09 17:47:00,38.1,35.0,30.07,South,175,0.0,1.0,89,0.00,,,0.21,weatherlink.com 1.10,2013-01-10 01:47:00,
2013-01-09 18:02:00,37.0,35.0,30.07,South,175,0.0,1.0,91,0.00,,,0.21,weatherlink.com 1.10,2013-01-10 02:02:00,
2013-01-09 18:17:00,36.8,35.0,30.07,West,277,0.0,1.0,93,0.00,,,0.21,weatherlink.com 1.10,2013-01-10 02:17:00,
2013-01-09 18:32:00,36.3,35.0,30.07,WNW,285,0.0,1.0,93,0.00,,,0.21,weatherlink.com 1.10,2013-01-10 02:32:00,
2013-01-09 18:48:00,35.9,34.0,30.07,NW,305,0.0,0.0,94,0.00,,,0.21,weatherlink.com 1.10,2013-01-10 02:48:00,
2013-01-09 19:03:00,36.0,35.0,30.07,WNW,285,0.0,1.0,94,0.00,,,0.21,weatherlink.com 1.10,2013-01-10 03:03:00,
2013-01-09 19:18:00,36.5,35.0,30.08,WSW,240,0.0,1.0,94,0.00,,,0.21,weatherlink.com 1.10,2013-01-10 03:18:00,
2013-01-09 19:33:00,36.6,35.0,30.07,East,97,0.0,1.0,94,0.01,,,0.22,weatherlink.com 1.10,2013-01-10 03:33:00,
2013-01-09 19:48:00,36.1,35.0,30.08,East,97,0.0,0.0,95,0.01,,,0.22,weatherlink.com 1.10,2013-01-10 03:48:00,
2013-01-09 20:03:00,36.1,35.0,30.08,East,98,0.0,1.0,96,0.01,,,0.22,weatherlink.com 1.10,2013-01-10 04:03:00,
2013-01-09 20:48:00,35.6,34.0,30.08,NW,308,0.0,1.0,95,0.01,,,0.23,weatherlink.com 1.10,2013-01-10 04:48:00,
2013-01-09 21:03:00,35.4,34.0,30.09,West,269,0.0,1.0,95,0.01,,,0.23,weatherlink.com 1.10,2013-01-10 05:03:00,
2013-01-09 21:18:00,35.4,34.0,30.09,West,269,0.0,0.0,96,0.00,,,0.23,weatherlink.com 1.10,2013-01-10 05:18:00,
2013-01-09 21:49:00,35.5,35.0,30.10,West,271,0.0,1.0,96,0.01,,,0.24,weatherlink.com 1.10,2013-01-10 05:49:00,
2013-01-09 22:03:00,35.5,35.0,30.10,West,271,0.0,0.0,96,0.01,,,0.24,weatherlink.com 1.10,2013-01-10 06:03:00,
2013-01-09 22:18:00,35.9,35.0,30.10,West,271,0.0,0.0,96,0.01,,,0.24,weatherlink.com 1.10,2013-01-10 06:18:00,
2013-01-09 22:33:00,36.0,35.0,30.10,SE,124,0.0,1.0,97,0.01,,,0.24,weatherlink.com 1.10,2013-01-10 06:33:00,
2013-01-09 22:48:00,36.0,35.0,30.09,SSE,158,0.0,2.0,97,0.00,,,0.24,weatherlink.com 1.10,2013-01-10 06:48:00,
2013-01-09 23:03:00,36.2,36.0,30.10,ESE,105,0.0,1.0,97,0.00,,,0.24,weatherlink.com 1.10,2013-01-10 07:03:00,
2013-01-09 23:18:00,36.0,35.0,30.10,SE,124,0.0,1.0,96,0.00,,,0.24,weatherlink.com 1.10,2013-01-10 07:18:00,
2013-01-09 23:33:00,35.9,35.0,30.10,SSE,166,0.0,2.0,96,0.00,,,0.24,weatherlink.com 1.10,2013-01-10 07:33:00,
2013-01-09 23:48:00,35.9,35.0,30.09,West,267,0.0,2.0,96,0.00,,,0.24,weatherlink.com 1.10,2013-01-10 07:48:00,